| time (UTC) | temp F | wind direction | speed knots | gust knots | rain 1hr in | rain 24hr in | rain mn in | humidity % | barometer mb |
| 20260902025517 | 60 | 76 | 3.5 | 4.3 | 0.00 | 0.00 | 0.00 | 58 | 1027.5 |
| 20260902024518 | 61 | 83 | 2.6 | 3.5 | 0.00 | 0.00 | 0.00 | 55 | 1027.4 |
| 20260902023518 | 61 | 78 | 4.3 | 5.2 | 0.00 | 0.00 | 0.00 | 55 | 1027.3 |
| 20260902022518 | 62 | 46 | 2.6 | 3.5 | 0.00 | 0.00 | 0.00 | 53 | 1027.3 |
| 20260902021518 | 63 | 12 | 1.7 | 2.6 | 0.00 | 0.00 | 0.00 | 51 | 1027.2 |
| 20260902020518 | 64 | 344 | 1.7 | 2.6 | 0.00 | 0.00 | 0.00 | 50 | 1027.1 |
| 20260902015519 | 65 | 18 | 2.6 | 5.2 | 0.00 | 0.00 | 0.00 | 50 | 1027.0 |
| 20260902014518 | 66 | 30 | 6.1 | 10.4 | 0.00 | 0.00 | 0.00 | 48 | 1026.8 |
| 20260902013519 | 66 | 39 | 5.2 | 7.8 | 0.00 | 0.00 | 0.00 | 44 | 1026.7 |
| 20260902012520 | 66 | 6 | 1.7 | 3.5 | 0.00 | 0.00 | 0.00 | 47 | 1026.5 |
| 20260902011519 | 66 | 271 | 2.6 | 4.3 | 0.00 | 0.02 | 0.00 | 47 | 1026.4 |
| 20260902010519 | 67 | 243 | 3.5 | 6.1 | 0.00 | 0.02 | 0.00 | 45 | 1026.2 |
| 20260902005520 | 69 | 247 | 2.6 | 5.2 | 0.00 | 0.02 | 0.00 | 42 | 1026.3 |
| 20260902004520 | 69 | 252 | 4.3 | 6.1 | 0.00 | 0.02 | 0.00 | 40 | 1026.2 |
| 20260902003516 | 70 | 262 | 5.2 | 7.0 | 0.00 | 0.02 | 0.00 | 39 | 1026.2 |
| 20260902002539 | 72 | 264 | 6.1 | 8.7 | 0.00 | 0.02 | 0.00 | 38 | 1026.1 |
| 20260902001520 | 73 | 289 | 5.2 | 7.0 | 0.00 | 0.02 | 0.00 | 35 | 1026.1 |
| 20260902000541 | 71 | 284 | 5.2 | 7.8 | 0.00 | 0.02 | 0.00 | 38 | 1026.1 |
| 20260901235521 | 73 | 298 | 4.3 | 7.0 | 0.00 | 0.02 | 0.00 | 34 | 1026.0 |
| 20260901234517 | 74 | 305 | 5.2 | 7.8 | 0.00 | 0.02 | 0.00 | 31 | 1025.9 |
| 20260901233537 | 74 | 337 | 5.2 | 8.7 | 0.00 | 0.02 | 0.00 | 30 | 1025.8 |
| 20260901232517 | 74 | 61 | 4.3 | 7.8 | 0.00 | 0.02 | 0.00 | 33 | 1025.8 |
| 20260901231528 | 74 | 194 | 5.2 | 7.8 | 0.00 | 0.02 | 0.00 | 32 | 1026.0 |
| 20260901230518 | 74 | 246 | 4.3 | 7.0 | 0.00 | 0.02 | 0.00 | 30 | 1026.0 |
| 20260901225517 | 74 | 229 | 4.3 | 7.8 | 0.00 | 0.02 | 0.00 | 31 | 1026.0 |
| 20260901224518 | 74 | 214 | 5.2 | 9.6 | 0.00 | 0.02 | 0.00 | 31 | 1026.1 |
| 20260901223558 | 74 | 201 | 6.1 | 9.6 | 0.00 | 0.02 | 0.00 | 31 | 1026.2 |
| 20260901222518 | 74 | 227 | 5.2 | 9.6 | 0.00 | 0.02 | 0.00 | 30 | 1026.3 |
| 20260901221619 | 73 | 227 | 6.1 | 9.6 | 0.00 | 0.02 | 0.00 | 32 | 1026.5 |
| 20260901220518 | 73 | 240 | 2.6 | 6.1 | 0.00 | 0.02 | 0.00 | 29 | 1026.7 |
| 20260901215519 | 73 | 246 | 5.2 | 7.8 | 0.00 | 0.02 | 0.00 | 29 | 1026.8 |
| 20260901214545 | 73 | 295 | 4.3 | 6.1 | 0.00 | 0.02 | 0.00 | 28 | 1026.9 |
| 20260901213519 | 74 | 314 | 5.2 | 10.4 | 0.00 | 0.02 | 0.00 | 28 | 1027.0 |
| 20260901212536 | 73 | 292 | 5.2 | 8.7 | 0.00 | 0.02 | 0.00 | 28 | 1027.0 |
| 20260901211519 | 74 | 269 | 5.2 | 9.6 | 0.00 | 0.02 | 0.00 | 28 | 1026.9 |
| 20260901210520 | 74 | 314 | 4.3 | 8.7 | 0.00 | 0.02 | 0.00 | 27 | 1027.1 |
| 20260901205520 | 72 | 279 | 2.6 | 7.8 | 0.00 | 0.02 | 0.00 | 27 | 1027.2 |
| 20260901204519 | 72 | 329 | 1.7 | 4.3 | 0.00 | 0.02 | 0.00 | 28 | 1027.4 |
| 20260901203520 | 73 | 214 | 3.5 | 7.0 | 0.00 | 0.02 | 0.00 | 29 | 1027.5 |
| 20260901202518 | 73 | 268 | 6.1 | 9.6 | 0.00 | 0.02 | 0.00 | 29 | 1027.6 |
| 20260901201518 | 72 | 337 | 4.3 | 9.6 | 0.00 | 0.02 | 0.00 | 30 | 1027.7 |
| 20260901200521 | 72 | 30 | 3.5 | 7.8 | 0.00 | 0.02 | 0.00 | 30 | 1027.8 |
| 20260901195521 | 73 | 35 | 3.5 | 6.1 | 0.00 | 0.02 | 0.00 | 30 | 1028.0 |
| 20260901194518 | 73 | 25 | 4.3 | 8.7 | 0.00 | 0.02 | 0.00 | 32 | 1028.0 |
| 20260901193521 | 73 | 202 | 1.7 | 4.3 | 0.00 | 0.02 | 0.00 | 33 | 1028.0 |
| 20260901192519 | 72 | 218 | 6.1 | 11.3 | 0.00 | 0.02 | 0.00 | 33 | 1028.1 |
| 20260901191521 | 71 | 121 | 3.5 | 6.1 | 0.00 | 0.02 | 0.00 | 36 | 1028.4 |
| 20260901190518 | 71 | 186 | 6.1 | 11.3 | 0.00 | 0.02 | 0.00 | 37 | 1028.4 |
| 20260901185542 | 70 | 153 | 4.3 | 7.0 | 0.00 | 0.02 | 0.00 | 38 | 1028.6 |
| 20260901184522 | 69 | 197 | 2.6 | 5.2 | 0.00 | 0.02 | 0.00 | 39 | 1028.7 |
| 20260901183522 | 69 | 171 | 1.7 | 5.2 | 0.00 | 0.02 | 0.00 | 39 | 1028.8 |
| 20260901182516 | 68 | 63 | 2.6 | 4.3 | 0.00 | 0.02 | 0.00 | 42 | 1028.9 |
| 20260901181517 | 69 | 230 | 3.5 | 7.8 | 0.00 | 0.02 | 0.00 | 41 | 1028.9 |
| 20260901180543 | 68 | 179 | 1.7 | 6.1 | 0.00 | 0.02 | 0.00 | 41 | 1029.1 |
| 20260901175523 | 66 | 218 | 3.5 | 7.8 | 0.00 | 0.02 | 0.00 | 44 | 1029.0 |
| 20260901174517 | 66 | 220 | 5.2 | 8.7 | 0.00 | 0.02 | 0.00 | 45 | 1029.1 |
| 20260901173517 | 67 | 235 | 5.2 | 8.7 | 0.00 | 0.02 | 0.00 | 46 | 1029.1 |
| 20260901172518 | 69 | 237 | 6.1 | 9.6 | 0.00 | 0.02 | 0.00 | 44 | 1029.2 |
| 20260901171518 | 68 | 230 | 6.1 | 10.4 | 0.00 | 0.02 | 0.00 | 45 | 1029.3 |
| 20260901170538 | 69 | 231 | 7.0 | 10.4 | 0.00 | 0.02 | 0.00 | 44 | 1029.3 |
| 20260901165518 | 68 | 235 | 6.1 | 11.3 | 0.00 | 0.02 | 0.00 | 46 | 1029.3 |
| 20260901164518 | 68 | 230 | 6.1 | 10.4 | 0.00 | 0.02 | 0.00 | 47 | 1029.4 |
| 20260901163518 | 67 | 212 | 7.8 | 12.2 | 0.00 | 0.02 | 0.00 | 49 | 1029.4 |
| 20260901162519 | 66 | 223 | 7.0 | 11.3 | 0.00 | 0.02 | 0.00 | 51 | 1029.4 |
| 20260901161519 | 66 | 229 | 6.1 | 10.4 | 0.00 | 0.02 | 0.00 | 52 | 1029.5 |
| 20260901160539 | 65 | 230 | 7.8 | 12.2 | 0.00 | 0.02 | 0.00 | 53 | 1029.4 |
| 20260901155539 | 64 | 234 | 6.1 | 9.6 | 0.00 | 0.02 | 0.00 | 55 | 1029.4 |
| 20260901154536 | 64 | 223 | 7.0 | 9.6 | 0.00 | 0.02 | 0.00 | 56 | 1029.3 |
| 20260901153530 | 62 | 199 | 7.0 | 8.7 | 0.00 | 0.02 | 0.00 | 60 | 1029.4 |
| 20260901152530 | 60 | 201 | 7.0 | 7.8 | 0.00 | 0.02 | 0.00 | 66 | 1029.5 |
| 20260901151530 | 0 | 200 | 7.0 | 7.0 | 0.00 | 0.02 | 0.00 | 1029.5 | |
| 20260901070107 | 58 | 190 | 7.8 | 7.8 | 0.00 | 0.02 | 0.00 | 65 | 1028.8 |
| 20260901065107 | 58 | 187 | 7.8 | 7.8 | 0.00 | 0.02 | 0.00 | 61 | 1028.7 |
| 20260901064107 | 57 | 199 | 6.1 | 7.0 | 0.00 | 0.02 | 0.00 | 66 | 1028.7 |
| 20260901063107 | 58 | 197 | 7.0 | 7.8 | 0.00 | 0.02 | 0.00 | 64 | 1028.7 |
| 20260901062108 | 58 | 185 | 5.2 | 6.1 | 0.00 | 0.02 | 0.00 | 66 | 1028.7 |
| 20260901061148 | 58 | 180 | 7.8 | 8.7 | 0.00 | 0.02 | 0.00 | 64 | 1028.8 |
| 20260901060148 | 59 | 174 | 7.8 | 9.6 | 0.00 | 0.02 | 0.00 | 62 | 1028.8 |
| 20260901055108 | 58 | 162 | 7.0 | 7.8 | 0.00 | 0.02 | 0.02 | 67 | 1028.7 |
| 20260901054108 | 58 | 179 | 6.1 | 6.1 | 0.00 | 0.02 | 0.02 | 66 | 1028.8 |
| 20260901053109 | 57 | 188 | 6.1 | 9.6 | 0.00 | 0.02 | 0.02 | 68 | 1028.9 |
| 20260901052109 | 56 | 167 | 6.1 | 7.0 | 0.00 | 0.02 | 0.02 | 74 | 1028.9 |
| 20260901051109 | 56 | 179 | 4.3 | 5.2 | 0.00 | 0.02 | 0.02 | 77 | 1028.8 |
| 20260901050109 | 56 | 177 | 4.3 | 5.2 | 0.00 | 0.02 | 0.02 | 78 | 1029.0 |
| 20260901045109 | 57 | 205 | 5.2 | 6.1 | 0.00 | 0.02 | 0.02 | 78 | 1029.1 |
| 20260901044017 | 57 | 213 | 4.3 | 6.1 | 0.00 | 0.02 | 0.02 | 77 | 1029.1 |
| 20260901043018 | 57 | 175 | 6.1 | 7.8 | 0.00 | 0.02 | 0.02 | 74 | 1029.1 |
| 20260901042018 | 57 | 168 | 5.2 | 6.1 | 0.00 | 0.02 | 0.02 | 76 | 1029.0 |
| 20260901041018 | 57 | 152 | 4.3 | 5.2 | 0.00 | 0.02 | 0.02 | 75 | 1028.9 |
| 20260901040018 | 57 | 146 | 3.5 | 5.2 | 0.00 | 0.02 | 0.02 | 78 | 1029.0 |
| 20260901035018 | 58 | 149 | 4.3 | 5.2 | 0.00 | 0.02 | 0.02 | 77 | 1029.0 |
| 20260901034019 | 58 | 153 | 3.5 | 4.3 | 0.00 | 0.02 | 0.02 | 77 | 1028.9 |
| 20260901033030 | 58 | 178 | 4.3 | 7.0 | 0.00 | 0.02 | 0.02 | 75 | 1028.8 |
| 20260901032028 | 57 | 205 | 2.6 | 3.5 | 0.00 | 0.02 | 0.02 | 75 | 1029.0 |
| 20260901031028 | 56 | 190 | 2.6 | 4.3 | 0.00 | 0.02 | 0.02 | 81 | 1029.1 |